Location: Village de las Huertas
(35.3014°N, 106.4095°W)
Time: 08:43:28
(UTC+00:00)

Meteor 1-24 Rocket - Pass Details

Date: 29 October 2020
Orbit: 791 x 927 km, 81.3° (Epoch: 04 December)

Event Time Altitude Azimuth Distance (km) Brightness Sun altitude
Rises 12:06:50 0° 205° (SSW) 3,364 6.6 -16.4°
Reaches altitude 10° 12:09:19 10° 213° (SSW) 2,454 5.9 -15.9°
Maximum altitude 12:14:34 42° 283° (WNW) 1,212 4.0 -14.9°
Drops below altitude 10° 12:20:04 10° 354° (N) 2,556 6.1 -13.8°
Sets 12:22:42 0° 1° (N) 3,519 6.9 -13.2°
